Wind_Speed
44 42 40 39 36 33 31 31 33 36 37 40 41 36 32 33 32 27 23 24 26 27 27 26 24 24 23 22 22 22 23 23 23 22 23 23 22 22 23 24 23 23 22 21 21 21 22 23 23 24 25 27 27 28 28 29 31 31 31 31 32 33 35 36 37 38 38 38 38 38 39 41 41 41 42 43 44 43 42 40 38 38 38 39 39
40 39 39 38 34 31 31 33 35 38 40 41 42 38 33 34 34 28 24 25 27 28 27 26 24 23 23 22 22 23 23 23 22 22 23 23 23 23 24 24 24 23 22 21 21 22 22 23 24 25 26 27 27 27 28 30 31 31 30 30 32 33 35 36 37 38 38 38 38 38 39 41 41 41 42 43 43 43 41 39 39 38 39 39 40
37 38 39 37 34 32 33 36 39 40 42 43 43 38 33 34 34 29 26 27 28 27 27 26 24 22 22 23 23 23 23 22 22 22 22 22 23 24 24 24 24 23 22 21 21 22 22 23 24 25 26 26 26 27 29 30 30 30 29 30 32 35 36 38 38 39 38 38 38 38 39 41 41 41 42 42 43 42 40 40 39 39 39 40 41
37 38 38 37 35 34 36 39 42 42 43 44 43 38 34 34 34 29 27 29 28 27 28 26 23 22 22 23 23 23 23 23 23 22 22 23 23 24 24 24 24 24 22 21 21 22 22 23 24 24 25 26 27 28 29 29 29 28 29 31 34 36 38 39 39 39 38 38 38 38 39 40 41 41 41 42 42 41 40 40 40 40 40 41 41
38 37 36 37 37 36 38 42 43 42 43 43 42 37 34 34 34 31 29 30 29 28 28 26 23 21 22 23 23 23 23 23 23 23 23 23 23 24 24 25 25 24 23 21 21 22 22 23 23 24 25 26 27 28 29 29 28 28 30 33 36 38 39 40 40 39 38 38 37 37 39 40 40 40 41 42 42 40 40 40 40 40 41 41 42
38 37 36 36 37 37 40 42 42 40 40 40 38 35 34 34 34 32 31 31 30 29 28 26 23 21 22 23 23 23 23 24 24 24 24 24 23 24 24 25 25 24 23 22 21 22 22 23 24 25 26 28 28 29 29 28 28 28 31 35 37 38 39 40 40 38 37 36 36 37 39 39 39 40 41 42 41 40 39 39 39 40 41 42 42
40 39 38 37 37 38 39 40 39 38 38 37 36 34 34 35 34 33 32 32 31 29 28 27 24 21 22 23 23 24 24 25 25 25 25 24 23 24 25 25 25 24 23 22 22 22 23 24 25 26 28 29 29 29 28 28 28 30 33 35 37 38 39 40 38 36 34 34 36 37 38 38 39 40 41 41 40 39 39 39 39 40 41 42 43
42 41 40 39 38 37 38 39 39 39 37 35 35 35 35 35 35 34 33 33 32 30 28 28 24 21 21 22 23 24 25 26 26 26 25 24 24 24 25 25 25 24 24 23 23 24 24 26 27 28 29 30 29 29 28 29 30 31 34 36 37 39 39 39 36 32 32 34 36 37 37 37 39 40 40 39 38 38 38 38 39 40 41 41 42
43 43 43 41 39 37 37 39 41 40 36 34 35 35 35 35 36 35 34 33 33 31 29 28 24 21 21 22 24 26 26 26 26 26 25 24 24 24 25 25 25 25 25 25 25 25 26 27 27 28 29 29 29 29 29 30 31 34 36 37 38 39 39 37 32 31 33 35 36 36 36 37 38 40 40 38 37 37 38 38 39 40 41 41 42
45 45 45 42 39 38 39 42 44 40 35 33 35 36 35 35 36 35 34 34 34 31 30 28 24 22 22 23 25 26 26 26 26 26 25 25 24 25 25 25 25 25 25 26 26 26 27 27 27 28 28 28 29 29 30 31 33 36 37 38 39 40 39 35 31 32 35 36 35 35 36 37 39 40 39 38 37 37 38 39 40 41 41 42 41
47 47 45 42 40 40 42 45 44 38 34 34 35 35 35 35 35 35 35 34 34 32 30 28 25 23 22 24 26 27 27 27 27 26 26 25 25 25 25 25 25 25 26 27 27 27 27 27 28 28 28 28 28 29 30 32 35 37 38 39 40 40 39 35 32 33 36 35 34 35 35 37 39 39 38 37 37 38 39 40 41 42 42 42 41
49 47 45 43 42 43 46 46 41 35 34 35 35 34 35 35 35 35 35 35 34 33 31 29 26 24 23 25 26 27 28 27 27 27 27 26 26 26 26 25 25 25 26 27 27 27 27 28 28 28 28 28 29 30 32 34 37 39 39 40 40 40 38 36 34 35 36 34 33 34 36 38 39 38 38 37 38 39 40 41 42 43 42 42 40
50 47 45 44 44 46 47 43 37 34 35 35 34 35 36 36 35 35 36 36 35 34 32 30 28 25 25 26 27 28 29 28 27 27 28 28 28 27 26 25 25 26 27 28 28 28 28 28 29 28 28 29 30 32 34 36 39 40 41 41 40 39 36 35 35 35 35 33 33 34 36 38 39 38 37 38 38 40 41 42 43 43 42 41 40
50 48 46 45 46 48 45 39 35 34 35 35 35 35 36 36 35 36 37 36 35 34 33 31 29 27 26 28 29 29 29 28 26 27 27 28 29 29 28 26 26 27 28 28 28 28 28 28 28 28 29 30 32 34 35 38 40 41 41 40 39 37 34 33 34 34 34 33 33 34 36 37 38 38 38 38 39 40 42 43 44 43 42 41 40
49 47 46 47 49 47 41 36 35 35 36 36 35 34 35 36 36 37 37 36 35 35 34 32 30 28 28 29 30 30 30 29 27 26 28 29 29 29 28 27 27 28 29 29 29 29 28 27 27 28 30 32 33 35 37 39 40 40 40 38 36 35 34 34 34 33 33 32 32 34 36 37 38 38 38 39 40 41 43 44 44 42 41 41 40
48 47 48 49 48 43 37 35 36 36 36 36 35 34 35 35 36 37 38 37 36 35 35 34 31 30 30 31 32 32 32 30 28 29 31 31 30 29 28 27 28 30 30 29 29 28 27 26 27 29 31 33 35 36 38 39 39 38 37 36 35 35 35 34 33 33 32 31 32 33 35 37 38 38 38 39 41 42 44 44 44 42 42 41 40
48 48 49 48 44 39 37 37 37 37 37 36 35 35 35 36 37 38 38 37 36 36 36 35 33 31 31 33 34 33 32 32 32 32 34 33 32 31 29 28 29 30 30 29 28 27 26 26 28 31 33 34 36 37 38 38 37 35 34 34 34 34 34 33 33 32 31 31 31 33 35 36 37 37 38 40 41 43 44 44 44 43 42 41 39
47 47 47 45 42 40 39 38 37 37 37 37 36 36 37 37 38 38 38 38 37 37 37 36 35 33 32 34 36 34 33 34 34 35 35 33 32 32 31 30 30 30 29 28 27 26 26 27 29 31 34 36 36 37 37 36 34 33 33 33 33 33 33 32 32 31 31 30 31 32 34 35 36 37 38 40 42 44 45 44 44 43 42 40 38
46 45 45 44 42 42 41 40 39 39 38 37 37 38 39 39 39 39 39 39 38 39 38 37 36 34 33 36 39 37 35 35 35 36 37 35 34 33 31 30 29 28 27 26 25 25 26 27 30 32 35 36 36 36 36 34 32 32 33 33 33 32 32 32 31 31 30 31 31 31 33 35 36 37 38 41 43 44 45 44 43 43 41 39 37
47 46 46 45 43 43 43 42 40 40 39 40 40 41 40 40 40 40 40 40 40 40 39 37 37 36 35 36 38 38 37 37 37 37 36 35 35 34 30 28 28 27 26 25 25 25 27 28 31 33 35 36 36 35 34 32 31 32 33 33 33 32 31 31 31 30 31 31 31 32 33 34 35 37 38 41 43 44 44 43 43 42 41 38 36
47 47 46 45 44 45 44 41 38 37 40 42 44 43 42 40 41 41 41 41 41 40 40 38 37 38 38 38 38 38 38 38 38 38 36 36 37 35 31 28 27 26 25 25 25 26 27 29 31 34 35 35 35 33 32 31 31 32 33 33 33 32 31 30 30 30 31 31 31 32 34 34 35 37 39 41 42 43 43 43 43 41 39 37 35
45 46 46 45 45 45 43 38 34 35 39 43 45 46 44 42 42 43 43 43 42 41 41 40 38 38 38 39 39 39 37 37 38 37 36 38 39 35 31 27 26 25 24 24 26 26 27 29 32 34 35 35 33 31 30 30 31 32 33 33 33 32 31 30 29 30 31 31 32 33 34 35 35 37 39 41 42 42 42 42 42 40 38 37 36
43 44 45 45 45 44 43 39 37 36 38 42 45 45 45 45 45 45 45 44 43 43 42 41 40 39 38 38 39 39 37 37 38 37 37 38 36 31 27 23 23 23 23 25 25 26 27 30 32 34 34 33 31 30 30 30 31 32 33 33 33 33 31 30 29 30 30 31 32 33 34 35 36 37 39 41 42 42 41 41 40 38 37 37 37
41 41 43 44 44 44 43 43 42 41 39 40 42 43 45 47 49 48 47 46 44 43 42 42 42 40 39 38 38 37 37 37 39 39 38 37 34 30 24 20 20 21 23 24 24 26 28 30 32 33 33 32 30 30 30 31 31 32 33 33 33 32 31 29 29 30 30 31 32 33 34 35 36 38 40 41 42 41 40 40 39 36 35 36 36
41 42 43 44 45 45 43 44 46 44 41 41 41 42 44 48 50 49 48 46 44 42 41 41 42 41 40 39 37 37 37 38 39 39 37 36 35 31 23 18 19 20 22 24 25 27 29 30 32 33 32 31 30 31 32 32 32 33 33 33 33 32 30 29 29 30 31 31 32 33 34 35 36 38 40 41 41 40 39 38 37 35 34 35 36
43 44 45 46 47 46 45 46 46 44 41 41 42 43 43 46 49 49 47 46 44 41 40 41 42 41 40 40 39 38 38 38 39 38 34 30 29 27 21 18 19 21 23 25 27 29 30 31 33 34 32 31 31 32 33 33 33 34 33 33 32 31 30 29 29 30 31 31 32 33 33 34 36 38 40 41 40 39 38 36 35 34 34 35 36
45 46 48 49 49 48 47 47 45 43 42 43 44 45 45 45 47 48 47 46 44 42 41 42 41 40 40 41 41 39 38 37 37 34 28 23 21 21 19 19 20 23 25 27 29 30 32 34 35 35 33 32 33 34 34 34 34 34 34 33 33 31 30 29 30 31 31 31 32 32 33 34 36 38 40 40 39 38 37 35 34 34 34 35 35
48 49 51 51 50 49 48 47 45 44 44 44 43 42 42 43 45 46 46 45 43 42 42 42 41 42 42 42 41 39 36 35 34 31 26 22 20 20 19 20 22 24 26 28 30 32 34 36 37 36 34 33 34 35 35 35 35 34 34 34 33 31 30 30 31 32 31 31 31 32 33 34 36 38 39 40 38 36 35 34 33 33 34 34 35
50 52 52 51 50 49 49 48 48 47 47 44 40 38 37 41 44 44 43 42 42 42 42 41 42 43 43 41 39 37 36 36 36 33 28 23 21 20 21 22 24 26 28 30 32 34 36 37 37 36 34 34 35 36 36 35 35 34 34 34 32 31 31 31 32 32 31 31 31 32 33 34 36 38 39 39 37 36 34 33 32 33 34 34 34
55 55 54 53 51 51 51 52 53 51 47 44 41 38 38 40 42 42 42 43 44 43 42 41 41 40 38 37 37 36 35 36 35 30 24 21 20 21 22 23 25 27 30 32 34 35 36 36 36 35 35 36 37 37 37 35 34 34 35 34 32 32 32 32 32 31 31 30 31 31 33 35 36 38 39 38 37 35 34 33 32 33 34 34 34
60 58 56 54 54 54 53 54 53 48 43 41 40 39 39 40 40 40 41 44 46 45 44 44 45 44 40 37 36 34 32 31 28 23 21 21 21 22 23 24 27 29 32 33 35 35 35 34 34 34 35 37 38 38 37 35 34 34 33 32 31 32 32 32 31 31 30 30 30 32 33 35 37 38 39 38 36 35 34 32 31 32 34 34 35
61 59 57 55 55 55 54 52 47 42 39 40 40 40 39 39 39 39 41 43 46 47 45 44 44 43 40 37 35 33 30 28 25 23 23 23 23 24 26 28 29 31 33 34 35 36 36 36 35 36 36 37 38 38 36 34 34 33 32 31 31 31 32 32 31 30 29 29 31 32 34 36 37 38 39 37 35 34 33 32 31 32 33 34 35
58 57 56 55 55 54 52 48 43 40 39 40 41 40 39 38 37 38 41 44 46 48 48 45 39 35 35 34 33 32 30 27 25 25 26 26 26 27 29 30 31 33 34 36 36 37 38 38 38 38 38 39 38 36 34 33 33 33 33 32 32 32 32 32 31 29 28 29 32 34 35 36 38 39 38 36 34 33 33 32 31 31 33 34 34
55 54 53 52 52 49 46 43 41 40 41 41 41 41 40 39 37 38 42 45 44 44 47 46 39 33 32 32 31 30 29 27 27 28 29 28 28 30 31 32 33 35 36 37 38 38 38 40 40 39 39 38 36 33 31 32 33 33 33 34 34 33 32 31 30 29 29 31 33 35 36 37 38 39 37 35 33 33 32 31 30 30 32 33 32
48 48 47 46 44 41 40 40 40 41 42 41 41 41 41 41 41 41 43 44 43 42 45 45 41 36 33 32 31 29 28 28 29 30 30 30 31 33 33 34 35 36 37 38 39 38 39 40 40 39 37 34 31 30 30 32 33 33 33 34 34 33 32 31 30 30 31 33 34 35 36 37 38 37 35 34 33 32 31 30 29 30 31 31 31
34 36 37 37 37 37 37 39 40 40 40 40 40 41 42 44 45 45 43 42 43 44 43 42 40 37 33 31 30 29 29 30 31 31 31 32 33 34 35 36 37 38 39 39 39 39 39 40 39 38 35 32 30 31 33 33 33 33 33 34 33 33 31 31 31 31 32 34 34 35 36 37 37 35 34 33 33 32 30 28 29 30 30 30 30
27 29 32 34 36 36 37 38 39 40 40 40 41 41 40 40 42 42 41 42 44 46 43 40 38 35 32 31 31 31 31 31 32 32 33 34 35 36 37 38 38 39 40 41 40 39 39 39 38 36 34 32 33 34 34 33 33 33 34 33 33 32 31 31 32 32 33 34 35 36 36 36 35 34 33 33 33 31 28 28 28 29 30 30 30
27 29 32 34 36 37 37 39 41 42 42 42 42 41 40 40 41 41 40 39 40 42 41 39 37 35 33 33 33 32 32 32 33 34 35 36 37 37 38 38 40 41 42 40 39 38 38 38 37 35 34 34 34 34 33 33 34 34 33 32 32 32 32 32 33 33 34 35 36 36 35 34 33 33 32 32 31 29 27 27 29 30 30 30 30
29 31 33 35 37 39 40 42 43 44 44 44 44 42 41 41 42 42 41 38 37 37 37 35 34 33 32 32 32 32 33 33 34 36 37 37 37 38 39 41 42 42 40 38 37 37 37 37 37 36 35 34 33 33 33 33 34 32 31 32 32 33 33 33 34 34 35 36 36 35 33 32 32 31 31 31 30 28 27 27 29 30 30 30 31
33 34 36 38 40 42 43 42 42 41 40 40 38 36 35 36 38 39 40 38 36 35 34 32 31 31 31 32 32 33 34 35 36 37 37 38 39 41 42 42 41 39 37 36 36 36 36 36 36 36 35 34 33 33 33 33 33 32 32 32 32 33 33 34 34 35 36 36 34 32 31 31 31 31 30 30 29 28 27 28 29 30 30 30 30
34 34 36 37 39 40 40 38 35 32 31 31 32 33 35 36 36 36 36 34 33 32 32 32 32 32 32 33 34 34 35 36 37 37 38 40 41 42 42 41 39 37 36 35 35 35 35 35 35 35 35 34 34 33 33 33 32 32 32 32 32 32 33 34 35 35 36 35 33 31 30 30 30 30 30 29 28 28 28 28 29 30 30 30 29
28 30 32 34 34 33 31 29 27 27 29 31 33 36 37 36 34 33 33 32 31 31 32 33 33 33 34 34 34 34 35 36 37 39 40 41 41 41 39 38 37 35 35 35 35 34 34 34 34 35 35 34 33 33 33 32 31 31 31 31 32 32 33 34 35 35 35 33 31 30 30 30 30 29 29 28 28 28 28 29 29 29 29 28 28
22 22 25 26 27 29 29 28 29 30 32 33 33 34 34 33 32 32 31 31 31 32 33 33 34 34 34 34 34 35 36 38 39 40 40 39 39 38 37 36 35 35 35 35 34 33 33 33 33 34 33 33 32 31 31 30 30 30 31 32 32 33 34 35 35 36 34 32 31 30 30 29 29 29 29 28 28 28 28 29 29 28 27 26 26
23 23 23 23 25 28 30 30 30 31 31 31 31 31 30 29 29 30 30 31 32 32 33 33 34 34 34 34 35 36 38 39 40 39 39 38 38 38 37 35 35 35 35 35 34 33 33 33 33 33 32 31 30 29 29 30 30 31 32 33 33 34 35 36 36 35 34 32 30 30 29 29 29 29 28 28 28 28 28 28 27 26 25 25 25
22 23 22 19 19 21 23 24 25 25 25 25 27 29 30 30 30 31 31 31 31 32 32 33 34 34 35 36 37 38 39 40 39 39 39 39 38 37 36 35 35 35 35 34 34 33 32 32 32 32 31 29 28 29 29 30 31 33 34 34 35 36 37 37 37 35 33 31 29 29 28 28 28 28 28 28 27 27 27 26 25 25 24 23 23
18 20 20 19 18 19 21 22 23 23 24 25 26 28 30 31 32 32 32 32 32 33 33 34 35 36 36 37 38 39 39 39 39 39 39 39 38 37 36 36 36 36 34 34 33 32 32 32 32 31 30 29 29 30 31 32 34 35 35 36 37 37 38 37 37 35 33 30 29 28 28 27 27 27 27 26 26 26 25 24 24 23 23 22 22
18 19 18 18 19 21 22 23 24 25 26 27 28 29 30 31 31 32 32 33 33 34 35 35 36 37 37 38 38 39 39 40 40 40 40 39 38 38 38 37 36 35 34 33 32 31 32 33 32 30 29 29 30 32 34 35 36 36 37 37 38 38 38 37 36 34 32 30 28 27 27 27 26 26 26 25 25 24 24 24 23 23 22 21 21
21 21 19 18 19 22 23 23 24 26 27 28 29 29 29 30 30 31 32 33 34 34 35 36 37 38 38 39 40 40 40 41 41 41 40 39 39 39 38 36 35 33 32 31 30 29 30 31 31 31 31 32 33 34 35 36 36 37 37 37 37 38 37 37 35 33 31 29 28 27 27 26 26 25 25 25 24 24 24 23 23 22 21 21 21
23 24 23 22 22 23 23 23 24 25 27 28 29 29 30 30 31 32 33 34 35 36 37 37 38 39 40 40 41 41 40 40 40 40 39 38 38 37 36 35 34 33 32 31 30 31 32 32 33 33 34 35 35 36 36 36 37 37 37 37 37 37 37 36 34 32 30 28 28 27 26 26 25 25 25 25 24 24 24 24 23 22 22 21 21
24 24 25 25 25 25 25 25 26 26 27 28 29 30 31 31 32 33 34 35 36 37 38 39 39 40 40 40 40 40 39 38 38 37 37 36 36 35 35 34 34 33 32 32 33 33 34 34 34 34 35 36 36 37 37 37 38 37 37 37 37 36 35 34 32 30 29 28 28 28 27 26 25 25 25 25 25 25 24 24 24 23 22 22 22
24 25 25 25 26 27 27 27 27 27 28 30 31 31 32 33 34 35 36 37 37 38 38 39 39 39 39 39 39 38 37 36 35 35 35 35 35 35 35 34 34 34 34 34 34 34 34 34 35 35 36 36 37 37 38 38 38 37 37 37 36 34 33 32 31 30 29 29 28 28 27 27 26 26 26 26 26 25 25 24 24 23 23 23 23
Wind_Direction
235 237 237 234 233 237 245 250 254 257 258 260 262 261 260 263 263 260 258 262 267 271 273 272 268 266 268 271 273 275 276 277 278 280 283 286 287 289 291 292 292 290 285 281 279 279 281 283 285 288 291 295 299 302 303 303 303 304 305 307 309 310 311 312 311 311 311 312 312 314 318 320 320 319 320 321 322 323 323 322 322 320 319 319 320
234 234 230 227 230 237 244 249 252 254 256 258 260 261 260 261 261 258 255 259 265 269 271 270 267 267 269 271 273 275 276 277 279 281 284 286 287 288 290 292 292 290 286 282 280 279 280 283 287 291 295 298 301 302 303 304 304 305 307 309 312 314 315 314 313 312 312 312 312 314 317 320 320 319 320 321 323 323 322 321 321 320 319 319 319
229 227 225 225 230 236 242 247 249 251 254 256 259 261 260 259 259 256 253 256 262 267 269 268 266 267 270 272 274 275 276 278 280 282 283 284 285 287 289 292 293 291 286 282 280 280 282 286 290 293 297 300 302 303 304 304 305 306 309 313 316 317 317 316 314 313 312 311 312 313 317 320 319 319 320 322 323 323 322 321 320 320 319 318 318
223 224 225 226 230 235 242 246 248 250 253 254 258 261 260 257 256 253 251 255 260 265 267 266 265 267 270 272 274 276 278 279 280 282 283 283 284 286 289 292 293 291 287 283 282 283 285 288 291 294 298 300 302 303 305 305 305 306 311 316 318 318 318 316 314 312 311 310 311 313 317 319 318 319 321 323 323 323 322 320 319 319 318 318 318
220 223 226 227 229 234 242 247 249 251 252 254 257 259 257 254 253 251 250 254 259 263 265 265 263 265 269 271 274 277 279 279 280 281 283 283 283 285 288 291 293 292 288 285 284 285 287 289 292 295 298 300 302 304 306 306 305 306 312 317 318 317 316 315 313 312 310 310 311 314 317 317 317 320 322 323 324 323 321 320 319 318 318 318 318
219 222 224 227 229 234 242 247 249 250 251 253 256 257 254 251 251 249 249 252 257 260 263 263 261 264 268 271 273 276 277 279 280 282 283 283 283 285 287 290 292 292 290 287 285 286 287 290 293 297 299 301 303 305 308 308 306 308 312 315 316 316 315 314 313 312 311 311 312 315 316 316 318 321 323 324 324 322 321 320 320 319 318 318 319
218 220 223 226 229 234 241 246 249 249 250 253 255 254 251 249 249 248 247 251 255 259 262 261 260 262 266 269 273 275 276 278 280 281 282 283 283 284 286 289 291 291 289 286 285 286 288 290 294 298 301 303 305 307 309 309 308 309 312 315 316 316 315 315 314 313 313 313 314 315 316 317 320 322 324 324 323 322 322 322 322 321 320 319 320
218 221 222 224 229 234 239 245 249 250 251 253 253 251 249 248 247 246 245 249 254 258 260 259 258 261 265 269 272 274 275 276 278 280 281 282 282 283 284 287 289 289 287 286 285 286 288 291 296 300 302 304 306 308 309 309 309 311 314 316 317 316 316 315 313 313 315 315 315 316 317 318 321 323 324 324 323 323 324 324 323 322 322 321 321
219 221 222 223 227 232 237 243 248 251 253 252 250 248 248 246 245 244 244 248 253 256 258 257 257 260 264 269 272 273 274 276 277 279 280 281 281 281 283 286 288 288 287 286 285 286 289 293 297 300 303 304 306 307 308 308 310 313 316 318 318 317 316 314 311 313 316 316 316 316 317 318 321 323 324 324 323 324 324 324 324 324 323 322 321
220 222 222 222 225 230 235 242 247 251 253 250 246 246 246 245 244 243 243 246 251 255 257 257 256 258 262 267 270 273 275 276 277 278 279 280 280 280 282 285 288 288 287 286 286 288 291 295 298 300 302 304 304 305 306 308 311 314 316 317 317 316 315 311 307 311 316 316 315 315 317 319 322 323 324 324 323 324 325 325 325 325 324 323 323
220 221 220 221 224 229 235 240 245 249 250 246 244 245 245 244 242 242 242 245 250 254 256 255 255 256 260 265 269 272 274 276 277 277 277 277 277 278 281 284 286 287 287 287 288 290 293 296 299 301 303 303 303 303 306 309 312 313 315 315 315 314 313 308 305 309 314 314 314 315 317 320 322 323 324 323 324 325 326 326 326 325 325 324 323
218 218 218 220 224 229 234 239 243 245 244 242 242 243 244 242 240 240 242 245 249 253 254 253 253 255 258 263 267 271 274 275 276 276 275 274 274 276 279 282 285 285 286 287 290 293 296 298 300 302 303 303 302 305 308 310 312 313 313 313 313 312 310 306 304 307 312 313 314 316 318 320 322 323 323 324 325 326 326 327 327 326 325 324 323
217 216 216 219 224 229 234 238 239 239 239 239 241 242 242 241 239 240 242 245 248 252 253 252 251 253 257 261 265 269 272 274 275 275 274 273 272 273 276 280 283 284 286 288 291 295 297 299 300 301 301 302 303 306 309 311 311 311 312 312 312 311 308 305 304 307 310 313 314 316 318 320 322 323 324 325 326 327 327 327 327 326 325 324 324
216 215 216 219 225 230 234 234 233 233 235 237 239 240 241 240 239 239 242 245 248 251 253 251 250 252 255 259 263 267 271 274 276 276 273 271 270 269 271 276 280 282 285 288 292 295 297 298 299 300 300 301 304 307 309 310 310 311 312 313 312 311 308 306 305 307 310 312 314 315 317 320 322 324 325 326 327 327 327 327 327 327 325 325 325
215 214 216 220 226 230 231 229 229 231 233 236 237 238 239 240 239 240 243 245 248 250 252 251 249 251 254 257 261 265 269 272 274 275 272 268 268 267 268 271 275 279 282 286 291 294 295 297 298 299 300 302 305 308 309 310 310 312 313 313 312 310 308 307 307 309 310 312 313 316 318 320 323 325 325 326 327 327 327 327 327 327 327 326 327
215 215 217 222 227 229 227 226 229 231 232 235 237 238 238 240 240 241 243 246 247 250 252 251 250 250 253 256 259 263 268 271 272 272 270 268 266 265 265 265 269 274 279 284 289 292 293 296 298 299 300 304 307 309 309 310 311 313 313 312 310 309 308 308 309 310 311 312 314 316 318 321 324 325 326 326 327 327 327 327 328 328 327 327 327
216 217 220 225 228 227 225 227 231 232 233 236 238 238 239 240 241 242 244 247 249 250 251 251 250 250 253 257 259 262 267 271 270 269 270 270 265 260 259 261 264 270 277 284 288 289 291 295 297 299 302 306 308 308 309 310 312 313 313 311 310 309 308 308 309 309 310 312 314 316 319 321 324 325 325 326 326 326 327 328 329 328 327 327 327
217 220 224 227 228 226 227 230 232 233 234 237 238 239 240 241 241 243 245 247 249 249 250 251 251 252 255 257 260 263 266 269 272 272 273 273 265 257 255 257 262 269 277 283 286 287 290 294 297 301 304 306 307 308 309 310 312 312 311 310 309 308 308 308 308 309 310 311 313 316 318 321 323 324 325 326 326 327 328 329 329 328 327 327 326
219 223 226 228 227 227 229 232 233 233 234 236 239 240 242 242 243 244 245 247 249 249 250 251 253 255 256 257 260 263 265 268 272 275 277 274 263 256 254 256 261 269 275 280 284 287 290 295 299 302 305 306 307 308 308 310 310 309 309 308 307 307 307 307 308 309 310 311 313 315 317 320 323 324 325 325 326 327 328 329 329 329 328 327 327
220 225 228 228 227 228 231 233 234 234 234 236 239 241 242 244 246 246 247 248 250 251 251 252 254 257 258 258 259 262 266 269 272 277 281 278 267 258 254 255 261 268 272 276 281 285 291 296 300 303 305 306 306 307 308 309 309 308 308 307 306 306 306 307 309 310 310 311 313 315 317 320 322 323 324 325 326 328 329 329 329 329 328 328 328
222 226 229 229 229 231 234 235 238 241 241 239 240 241 243 245 247 249 250 250 252 254 253 253 253 255 257 259 260 262 266 270 274 279 284 284 276 263 253 253 261 267 270 275 280 285 291 296 301 304 306 306 306 307 308 309 308 308 308 307 306 305 306 307 308 310 310 311 313 315 318 320 322 323 324 325 327 328 329 329 329 329 328 328 328
223 227 230 231 233 234 235 238 246 253 252 248 245 244 244 246 248 250 251 251 252 254 255 256 256 255 256 259 261 263 267 271 276 280 283 285 279 263 249 252 261 264 267 274 280 286 292 298 303 306 307 307 308 308 308 308 307 308 308 308 306 306 307 308 309 310 310 312 314 316 317 319 321 322 323 325 327 329 330 330 329 328 328 328 328
225 229 232 234 236 238 239 242 250 258 258 253 250 248 246 246 248 250 251 252 252 253 255 258 260 258 258 259 262 267 271 273 277 280 282 286 277 255 243 253 260 260 267 276 281 288 294 300 305 307 307 308 308 307 306 306 307 308 309 308 307 307 308 309 309 310 311 312 314 315 317 319 321 322 323 325 327 329 330 329 328 328 327 327 328
231 234 236 238 239 241 242 244 249 255 258 255 253 253 251 248 247 250 251 251 252 253 255 259 261 261 260 259 262 267 271 274 279 280 282 284 272 250 244 260 263 263 273 279 284 291 296 300 304 305 306 308 307 305 304 304 306 308 309 309 308 308 309 309 309 310 311 313 314 315 316 319 320 321 323 325 327 329 330 329 327 327 326 326 327
234 237 240 242 243 244 245 247 250 254 257 255 254 255 254 251 249 249 250 251 253 255 257 259 262 262 261 260 262 265 268 272 277 279 281 280 267 252 252 266 269 270 278 282 286 292 296 300 303 304 306 307 305 303 303 303 305 308 309 309 308 307 307 307 308 310 311 312 313 314 316 318 320 321 323 325 327 328 329 328 326 325 325 325 326
234 237 240 242 245 246 246 248 250 252 255 257 258 257 255 253 252 250 250 252 254 256 257 259 261 261 261 261 260 262 265 269 275 279 280 274 260 252 258 269 271 275 280 284 288 293 297 300 302 303 305 305 303 302 302 303 305 307 309 310 308 306 306 306 308 310 312 313 313 314 315 317 319 321 323 325 327 328 328 326 325 324 324 324 325
233 236 238 240 243 246 248 249 250 252 257 262 262 257 252 251 253 252 251 250 252 254 255 257 259 260 260 259 259 260 264 270 275 276 272 261 254 257 265 269 271 276 281 285 291 296 299 300 301 302 301 301 301 302 302 303 304 306 309 310 308 305 305 306 308 310 311 312 312 313 314 317 319 321 323 325 326 327 326 324 323 323 323 324 326
236 237 238 241 244 246 249 251 253 256 261 264 261 254 248 247 248 249 248 247 247 249 251 253 256 257 256 255 257 260 263 270 274 270 261 258 263 267 266 268 272 278 283 289 295 298 299 299 300 299 297 297 300 302 302 303 304 306 308 308 306 303 303 305 308 310 311 311 311 312 313 316 318 321 323 324 325 326 324 322 322 322 322 324 326
240 241 241 242 244 246 250 253 256 260 261 257 251 249 248 246 244 243 243 244 245 245 247 249 251 251 249 249 252 257 261 265 266 262 260 262 266 265 265 270 276 282 287 292 295 297 298 298 298 296 294 296 299 300 300 302 304 306 306 306 304 302 304 306 308 309 310 310 310 311 313 316 318 321 322 323 324 324 323 321 320 320 321 323 325
243 245 245 244 245 247 251 254 257 260 258 252 249 252 252 249 247 245 242 244 246 245 246 246 244 243 245 247 251 257 262 261 258 258 262 265 264 265 269 274 279 283 287 291 294 296 299 299 298 295 293 295 298 299 299 301 303 305 306 305 304 304 305 306 307 307 308 308 309 311 313 316 318 320 321 322 323 322 321 319 318 318 320 322 324
242 244 245 246 247 248 250 254 257 258 255 252 254 256 253 250 252 251 248 247 247 246 246 245 244 244 249 251 252 257 262 261 260 264 269 267 266 270 273 276 280 283 286 290 293 296 298 299 300 298 295 295 297 298 299 301 302 304 305 304 303 303 304 304 305 306 307 307 308 311 314 315 317 319 320 321 320 319 319 318 316 316 318 320 323
242 244 245 246 247 249 252 256 257 256 253 253 255 254 251 250 253 254 253 251 248 244 241 240 241 244 246 246 249 254 258 260 264 268 267 264 267 272 275 278 281 283 286 290 293 295 295 296 297 298 297 297 297 297 297 299 301 303 304 303 301 301 301 302 304 305 305 305 308 312 314 315 316 317 317 317 316 316 317 315 314 314 316 318 322
241 242 244 246 248 251 253 254 253 251 251 251 251 251 251 252 253 254 254 253 250 246 242 239 238 239 240 241 245 249 253 257 261 263 262 264 267 271 274 277 280 283 286 290 294 296 295 295 296 298 298 297 295 294 294 297 300 303 304 302 301 300 300 302 303 304 303 305 309 311 313 313 314 314 314 314 314 315 315 313 312 312 313 316 321
240 242 243 246 249 250 249 248 247 247 248 247 248 249 251 252 254 256 257 255 252 248 244 238 234 233 235 238 242 247 250 254 256 257 260 263 267 270 273 275 278 282 286 291 294 296 296 296 298 300 299 296 293 292 294 298 301 303 302 301 300 300 301 302 303 303 304 307 309 311 312 313 313 314 314 313 313 313 313 311 309 309 311 315 320
238 239 241 243 243 242 241 241 243 245 246 248 250 251 252 255 256 258 259 259 252 243 237 232 228 227 230 235 240 245 248 250 253 256 259 263 266 269 272 275 278 282 287 291 295 296 296 296 298 300 299 295 291 292 296 299 301 301 300 299 299 299 300 302 303 303 305 307 308 309 311 313 314 314 313 312 312 312 310 307 306 307 309 313 318
227 229 230 232 233 233 236 240 243 246 249 253 255 256 257 259 258 257 258 255 246 237 233 230 226 226 229 233 240 245 247 250 252 256 259 263 265 268 271 275 279 284 289 293 294 294 294 295 298 299 298 293 291 294 298 300 300 299 299 298 297 298 299 302 303 304 305 306 307 309 311 312 313 313 312 311 311 310 307 304 303 304 307 311 316
220 220 222 225 228 232 237 243 248 252 254 256 258 259 259 257 254 254 253 248 240 236 233 230 226 226 229 233 239 243 245 249 252 256 259 262 265 269 273 277 281 286 290 292 292 293 294 295 297 298 296 292 292 296 298 298 298 298 298 297 297 298 300 303 304 304 305 305 307 309 311 311 311 311 311 311 310 308 305 302 301 302 305 309 315
226 227 228 229 232 236 241 247 252 255 256 256 257 257 256 253 251 249 247 241 235 232 230 226 225 226 229 233 237 241 244 248 252 255 258 262 266 270 274 278 282 286 288 290 291 292 293 295 297 297 296 294 294 296 296 296 297 298 297 297 297 299 301 303 304 304 304 305 307 309 309 309 309 310 311 310 308 305 302 300 300 302 304 309 313
229 232 234 236 238 240 244 248 252 256 257 257 256 256 255 251 247 242 238 234 230 226 224 223 225 228 232 235 237 241 245 248 252 255 259 263 267 271 274 277 280 284 287 289 290 291 292 293 295 296 297 296 295 294 294 295 296 296 296 296 297 300 302 303 303 303 304 306 309 310 309 308 309 310 310 308 306 303 301 300 300 302 305 309 312
231 234 236 238 239 241 244 249 253 255 255 253 251 248 243 237 232 230 230 229 226 225 225 227 230 232 235 236 239 242 245 249 253 257 262 265 269 272 276 279 282 284 286 286 287 288 290 292 293 294 296 295 294 293 293 294 294 295 295 296 298 300 301 301 301 302 305 308 310 309 308 308 309 310 309 307 305 303 302 301 301 303 306 309 311
232 234 236 238 240 243 245 247 248 245 239 234 230 225 222 220 221 223 225 224 223 225 229 232 234 236 238 240 242 245 248 252 257 261 265 269 273 276 279 281 283 284 283 284 286 288 289 290 291 292 293 292 291 290 291 292 293 294 296 297 299 299 299 299 301 303 306 309 309 308 307 308 309 309 308 306 304 303 302 302 302 304 306 309 310
231 236 239 240 240 240 238 234 228 220 215 213 214 214 216 219 220 219 220 223 226 229 231 234 236 239 242 244 247 251 254 258 262 266 269 273 275 277 279 281 282 281 282 284 287 288 289 289 290 289 288 288 288 289 290 291 293 295 296 297 298 297 298 299 300 303 306 307 307 306 306 308 308 307 306 304 303 303 303 303 303 305 307 308 309
221 224 223 218 211 205 201 200 202 204 205 208 212 215 219 223 223 222 223 226 228 230 233 237 240 243 246 249 253 257 260 263 266 269 272 273 274 277 280 280 280 280 282 285 288 288 288 287 286 285 285 286 287 289 289 291 293 295 296 296 296 296 298 299 301 303 305 304 303 304 306 307 307 306 304 303 302 302 303 303 304 305 306 307 308
214 211 207 200 194 193 194 196 199 203 205 208 212 216 220 224 226 228 229 229 230 233 236 240 243 246 250 253 256 260 263 265 267 269 270 273 276 278 279 278 278 280 284 286 287 286 284 283 282 282 283 285 286 287 288 290 292 294 295 296 296 297 298 300 301 302 302 300 300 303 305 305 305 304 303 302 302 302 302 303 303 304 305 306 307
220 222 223 217 210 209 211 211 211 213 214 216 219 222 224 226 229 231 232 234 236 238 241 244 247 250 253 256 259 261 263 265 267 269 271 274 276 277 277 276 278 281 283 284 284 283 282 281 280 280 282 283 283 284 286 289 291 293 294 295 296 298 299 300 300 300 299 298 299 301 303 303 303 303 301 301 301 301 301 302 303 303 305 306 308
217 224 227 224 219 218 221 223 224 224 226 228 230 230 230 231 233 234 236 239 241 244 246 249 251 253 255 257 259 260 262 264 266 269 271 274 275 275 275 276 278 280 281 281 281 281 280 279 278 279 280 281 283 285 288 290 292 293 294 295 297 298 299 299 299 298 296 295 296 299 300 301 301 301 301 300 300 300 300 301 302 303 305 307 308
220 222 224 226 227 227 227 229 230 230 229 230 232 232 234 235 236 238 240 242 245 247 249 251 253 255 256 258 259 260 263 265 267 268 270 272 273 273 274 275 277 278 278 278 279 278 277 277 278 279 280 282 285 287 289 291 293 294 294 296 297 298 298 297 296 295 293 292 294 296 297 298 299 299 299 299 299 299 299 299 301 302 304 306 308
228 227 223 224 230 234 233 232 232 232 232 232 232 233 235 237 239 241 242 244 247 249 251 252 254 256 258 259 261 263 264 266 267 268 268 268 268 269 271 273 274 274 274 275 275 274 274 276 279 281 282 284 286 288 289 290 291 293 294 295 296 296 295 294 293 291 289 289 291 293 294 296 297 298 298 297 297 297 297 298 300 302 303 304 306
231 230 227 226 230 235 237 235 233 234 235 236 236 236 237 239 241 243 245 247 248 249 251 252 254 256 258 260 263 264 265 266 267 268 267 267 268 269 270 271 271 271 272 273 274 274 275 278 281 283 285 286 287 288 289 290 291 292 293 293 294 294 293 292 290 288 286 286 288 290 292 294 294 294 294 295 294 294 295 296 297 299 300 301 303
233 234 233 232 233 235 237 238 238 238 239 240 241 242 243 244 246 247 249 250 250 251 253 254 255 257 258 260 261 263 264 264 265 266 267 268 269 269 269 270 270 272 273 274 275 277 279 280 282 283 284 286 287 288 289 290 291 291 292 293 292 292 291 289 288 286 285 285 287 289 290 291 291 291 291 291 291 292 293 294 295 296 297 298 300
236 237 238 238 238 239 240 241 241 240 240 241 243 244 246 247 248 249 250 251 252 253 254 255 257 258 259 260 261 263 263 264 265 266 267 268 268 269 269 270 272 273 274 275 276 278 279 281 282 283 284 286 287 288 289 290 290 291 291 292 291 290 289 288 286 285 285 285 286 288 288 289 288 288 287 288 288 289 290 291 292 293 294 296 297
Height
5783 5786 5788 5789 5790 5791 5792 5794 5795 5795 5795 5795 5796 5797 5798 5798 5798 5799 5799 5798 5798 5797 5797 5797 5798 5798 5799 5799 5799 5798 5799 5799 5799 5799 5799 5799 5798 5798 5797 5796 5796 5795 5794 5793 5792 5791 5791 5791 5790 5790 5789 5789 5788 5787 5786 5784 5782 5780 5779 5777 5775 5772 5770 5767 5765 5763 5760 5758 5756 5753 5750 5747 5744 5740 5737 5733 5730 5726 5723 5720 5718 5715 5711 5708 5705
5779 5781 5783 5784 5786 5787 5788 5789 5790 5790 5791 5791 5792 5793 5795 5795 5795 5795 5795 5795 5795 5794 5794 5794 5795 5795 5796 5796 5796 5795 5796 5796 5796 5796 5796 5796 5796 5795 5794 5794 5793 5792 5791 5790 5789 5789 5788 5788 5788 5787 5787 5786 5785 5784 5783 5781 5779 5777 5776 5774 5771 5769 5767 5764 5761 5759 5757 5754 5752 5749 5746 5743 5740 5737 5733 5730 5726 5722 5719 5716 5714 5711 5708 5705 5702
5774 5776 5777 5779 5781 5783 5783 5784 5785 5786 5787 5787 5788 5789 5791 5791 5791 5792 5792 5791 5791 5791 5791 5791 5792 5792 5792 5793 5792 5792 5793 5793 5794 5794 5793 5793 5793 5792 5792 5791 5791 5790 5789 5788 5787 5786 5786 5785 5785 5785 5784 5784 5783 5781 5780 5778 5776 5774 5772 5770 5768 5766 5763 5760 5758 5755 5753 5751 5748 5745 5742 5739 5736 5733 5730 5726 5722 5719 5715 5712 5710 5707 5704 5701 5698
5768 5771 5773 5774 5776 5778 5779 5779 5780 5781 5782 5783 5784 5785 5787 5787 5787 5788 5788 5787 5788 5788 5788 5788 5789 5789 5789 5789 5789 5790 5790 5790 5790 5791 5791 5791 5790 5790 5790 5789 5788 5787 5786 5785 5784 5784 5783 5783 5783 5782 5782 5781 5779 5778 5777 5775 5773 5771 5769 5767 5765 5762 5759 5757 5754 5752 5749 5747 5744 5741 5738 5735 5732 5729 5726 5723 5719 5715 5712 5708 5705 5703 5701 5697 5694
5763 5766 5768 5769 5771 5773 5774 5775 5775 5777 5778 5779 5780 5781 5782 5783 5783 5784 5784 5784 5784 5785 5785 5785 5785 5786 5786 5786 5786 5787 5787 5787 5787 5788 5788 5788 5788 5788 5787 5787 5786 5785 5784 5783 5782 5781 5781 5780 5780 5779 5778 5777 5776 5774 5773 5771 5769 5768 5766 5764 5761 5758 5756 5753 5750 5748 5745 5743 5740 5737 5734 5732 5729 5726 5722 5719 5715 5712 5708 5705 5701 5698 5696 5693 5690
5758 5760 5762 5764 5767 5769 5770 5770 5771 5773 5774 5775 5776 5777 5778 5779 5779 5780 5780 5780 5780 5781 5781 5782 5782 5782 5783 5783 5784 5784 5784 5784 5784 5785 5785 5785 5786 5785 5785 5784 5783 5782 5781 5780 5779 5779 5778 5778 5777 5776 5775 5774 5772 5771 5769 5768 5766 5765 5763 5760 5758 5755 5752 5750 5747 5744 5741 5739 5736 5734 5731 5728 5725 5722 5718 5715 5712 5708 5705 5702 5699 5694 5691 5688 5686
5752 5755 5757 5760 5762 5764 5765 5766 5767 5768 5769 5770 5771 5772 5773 5774 5775 5775 5776 5776 5777 5777 5778 5778 5778 5779 5780 5780 5780 5781 5781 5781 5781 5782 5782 5783 5783 5782 5782 5781 5780 5779 5778 5777 5777 5776 5776 5775 5774 5773 5772 5770 5769 5768 5766 5764 5763 5761 5759 5757 5754 5752 5749 5746 5743 5740 5738 5736 5733 5730 5727 5724 5721 5718 5715 5711 5708 5705 5702 5698 5695 5692 5688 5684 5680
5747 5750 5752 5754 5757 5759 5761 5762 5762 5763 5764 5766 5767 5768 5769 5770 5771 5771 5772 5772 5773 5774 5774 5774 5775 5776 5776 5777 5777 5777 5777 5778 5778 5779 5779 5780 5780 5779 5779 5778 5777 5776 5775 5774 5774 5773 5773 5772 5771 5770 5769 5767 5766 5765 5763 5761 5760 5758 5756 5753 5750 5748 5745 5742 5739 5737 5735 5732 5730 5727 5724 5721 5718 5715 5712 5708 5705 5702 5698 5695 5691 5688 5685 5681 5677
5742 5745 5747 5749 5752 5755 5756 5757 5757 5758 5760 5761 5763 5764 5765 5766 5766 5767 5768 5769 5769 5770 5770 5771 5771 5772 5773 5773 5774 5774 5774 5774 5775 5776 5776 5777 5777 5776 5775 5775 5774 5773 5772 5771 5771 5770 5770 5769 5768 5767 5766 5764 5763 5761 5760 5758 5756 5754 5752 5749 5747 5744 5741 5739 5736 5734 5732 5729 5726 5723 5721 5718 5715 5712 5708 5705 5702 5699 5695 5692 5689 5685 5682 5678 5675
5737 5740 5742 5745 5748 5750 5751 5751 5752 5753 5755 5757 5759 5760 5760 5761 5762 5763 5764 5765 5765 5766 5767 5767 5768 5769 5769 5770 5770 5770 5771 5771 5772 5773 5773 5773 5773 5773 5772 5772 5771 5770 5769 5768 5768 5767 5767 5766 5765 5763 5762 5761 5760 5758 5756 5755 5753 5750 5748 5746 5743 5740 5738 5735 5733 5731 5728 5726 5723 5720 5717 5715 5712 5708 5705 5702 5699 5696 5693 5689 5686 5682 5679 5675 5672
5731 5735 5738 5740 5742 5744 5745 5746 5747 5750 5752 5753 5754 5755 5756 5757 5758 5759 5760 5761 5761 5762 5763 5764 5765 5765 5766 5767 5767 5767 5768 5768 5769 5769 5770 5770 5770 5769 5769 5769 5768 5767 5766 5765 5765 5764 5763 5762 5761 5760 5759 5758 5756 5755 5753 5751 5749 5747 5745 5743 5740 5737 5734 5731 5729 5727 5725 5722 5719 5717 5714 5711 5708 5705 5702 5699 5696 5693 5689 5686 5683 5679 5676 5672 5668
5725 5729 5732 5735 5737 5738 5740 5741 5743 5746 5747 5748 5750 5751 5752 5752 5753 5755 5756 5757 5758 5758 5759 5760 5761 5762 5763 5763 5764 5764 5764 5765 5765 5766 5766 5766 5766 5766 5766 5765 5765 5764 5763 5762 5762 5761 5760 5759 5758 5757 5756 5754 5753 5751 5750 5748 5746 5744 5741 5739 5736 5733 5731 5728 5726 5723 5721 5718 5716 5713 5711 5708 5705 5702 5699 5696 5693 5689 5686 5683 5679 5676 5672 5669 5666
5719 5723 5726 5729 5731 5733 5734 5736 5739 5741 5742 5744 5746 5746 5747 5748 5750 5751 5752 5753 5753 5754 5755 5756 5757 5758 5759 5760 5760 5760 5761 5761 5762 5762 5762 5763 5763 5763 5763 5762 5761 5761 5760 5759 5758 5757 5757 5755 5754 5753 5752 5751 5750 5748 5746 5744 5742 5740 5738 5735 5733 5730 5727 5725 5722 5720 5717 5715 5713 5710 5708 5705 5702 5699 5696 5693 5689 5686 5683 5679 5676 5672 5669 5665 5662
5714 5717 5720 5723 5726 5727 5729 5732 5735 5736 5738 5739 5740 5741 5742 5744 5745 5747 5747 5748 5750 5750 5751 5752 5753 5755 5756 5756 5756 5757 5757 5758 5758 5759 5759 5759 5759 5759 5759 5759 5758 5757 5756 5755 5755 5754 5753 5752 5751 5750 5749 5748 5746 5745 5743 5741 5739 5736 5733 5731 5729 5726 5724 5721 5719 5717 5714 5712 5710 5707 5705 5702 5699 5696 5693 5689 5686 5683 5679 5676 5672 5669 5665 5662 5659
5709 5712 5715 5718 5720 5722 5725 5729 5731 5732 5733 5735 5736 5737 5738 5739 5741 5742 5743 5744 5746 5746 5747 5748 5749 5751 5751 5751 5752 5753 5753 5754 5755 5755 5755 5755 5755 5755 5755 5755 5754 5753 5752 5752 5751 5750 5750 5749 5748 5747 5745 5744 5743 5741 5740 5737 5735 5732 5729 5727 5725 5723 5721 5718 5716 5714 5711 5709 5707 5704 5702 5699 5696 5693 5689 5686 5683 5680 5676 5673 5669 5666 5662 5658 5655
5704 5707 5710 5712 5715 5719 5722 5725 5726 5728 5729 5730 5732 5733 5734 5735 5736 5737 5738 5740 5741 5742 5742 5744 5745 5746 5747 5747 5748 5749 5750 5751 5752 5751 5751 5751 5751 5751 5751 5751 5750 5749 5749 5748 5748 5747 5746 5746 5744 5743 5742 5741 5740 5738 5736 5733 5731 5728 5726 5724 5722 5720 5717 5715 5713 5710 5708 5705 5703 5701 5698 5695 5692 5689 5686 5683 5680 5677 5673 5670 5666 5662 5659 5655 5652
5701 5703 5706 5709 5712 5716 5718 5720 5722 5724 5726 5727 5728 5729 5730 5731 5731 5732 5733 5735 5737 5738 5738 5739 5741 5742 5743 5742 5743 5745 5746 5747 5747 5746 5746 5746 5746 5747 5747 5747 5746 5745 5745 5745 5744 5744 5743 5742 5741 5740 5739 5738 5736 5734 5731 5729 5727 5724 5722 5720 5719 5716 5714 5712 5709 5707 5704 5702 5700 5697 5694 5692 5689 5686 5683 5680 5677 5674 5670 5667 5663 5659 5656 5653 5649
5697 5700 5703 5706 5709 5712 5714 5716 5718 5720 5722 5723 5724 5725 5726 5726 5727 5728 5729 5731 5732 5733 5734 5734 5736 5738 5738 5738 5739 5740 5742 5742 5741 5741 5741 5742 5742 5742 5742 5742 5742 5742 5742 5741 5741 5740 5739 5738 5737 5736 5735 5733 5732 5730 5727 5725 5723 5720 5719 5717 5715 5713 5711 5708 5706 5703 5701 5698 5696 5693 5691 5688 5685 5683 5680 5677 5674 5670 5667 5663 5660 5656 5653 5650 5647
5694 5698 5700 5703 5705 5708 5710 5712 5714 5716 5718 5719 5720 5721 5722 5722 5723 5724 5725 5726 5728 5728 5729 5730 5732 5733 5734 5734 5734 5735 5737 5738 5737 5738 5738 5738 5737 5738 5738 5738 5738 5738 5738 5738 5737 5736 5735 5734 5733 5732 5731 5729 5728 5726 5723 5721 5719 5717 5715 5713 5711 5709 5707 5704 5702 5699 5697 5694 5692 5690 5687 5684 5682 5679 5676 5673 5670 5667 5664 5660 5657 5653 5650 5647 5644
5690 5693 5695 5698 5701 5703 5705 5707 5709 5712 5713 5715 5715 5716 5717 5719 5720 5720 5721 5722 5723 5724 5725 5727 5728 5729 5729 5730 5730 5730 5732 5733 5733 5734 5733 5733 5733 5734 5734 5734 5734 5734 5734 5734 5733 5732 5732 5731 5730 5728 5727 5725 5724 5722 5720 5717 5715 5713 5711 5710 5707 5705 5703 5700 5698 5695 5693 5691 5688 5686 5683 5681 5678 5675 5673 5670 5667 5664 5661 5657 5654 5650 5647 5644 5641
5685 5687 5690 5693 5696 5698 5701 5703 5706 5708 5710 5710 5711 5712 5713 5715 5716 5716 5717 5717 5718 5720 5721 5723 5724 5725 5725 5725 5726 5726 5728 5728 5729 5729 5729 5729 5729 5729 5730 5730 5730 5730 5730 5729 5729 5728 5728 5727 5726 5724 5723 5721 5720 5718 5716 5713 5711 5710 5708 5706 5704 5701 5699 5696 5694 5692 5689 5687 5685 5683 5680 5677 5675 5672 5669 5666 5664 5661 5657 5654 5651 5647 5644 5641 5638
5680 5682 5685 5689 5692 5694 5697 5700 5703 5704 5705 5706 5707 5708 5710 5711 5712 5712 5712 5713 5715 5716 5717 5718 5720 5720 5721 5721 5721 5722 5723 5723 5724 5725 5725 5725 5724 5724 5725 5726 5726 5726 5726 5725 5725 5724 5724 5723 5721 5720 5718 5717 5715 5714 5712 5710 5708 5706 5705 5703 5700 5698 5695 5693 5690 5688 5686 5684 5682 5679 5677 5674 5671 5668 5665 5663 5660 5657 5654 5651 5647 5644 5641 5638 5635
5675 5678 5681 5684 5688 5691 5694 5696 5698 5699 5700 5701 5702 5704 5706 5707 5707 5707 5708 5709 5710 5711 5712 5713 5714 5715 5717 5717 5717 5718 5718 5719 5720 5721 5721 5720 5719 5719 5720 5722 5722 5722 5722 5721 5721 5720 5720 5719 5717 5716 5714 5713 5711 5710 5708 5706 5704 5703 5701 5699 5697 5694 5692 5689 5687 5685 5682 5681 5679 5676 5673 5671 5668 5665 5662 5659 5657 5654 5651 5648 5644 5641 5638 5635 5632
5671 5674 5677 5680 5683 5686 5689 5691 5693 5694 5694 5695 5697 5700 5702 5703 5703 5703 5703 5705 5706 5707 5709 5709 5709 5710 5712 5713 5714 5714 5715 5715 5715 5716 5716 5716 5715 5715 5716 5717 5717 5717 5717 5717 5717 5716 5716 5715 5713 5712 5710 5709 5707 5706 5704 5702 5701 5699 5698 5695 5693 5690 5688 5686 5684 5681 5679 5677 5675 5673 5670 5668 5665 5662 5659 5656 5653 5650 5648 5645 5641 5639 5636 5632 5629
5666 5669 5672 5675 5679 5681 5684 5686 5687 5688 5689 5691 5693 5695 5696 5697 5698 5698 5699 5700 5702 5704 5705 5705 5705 5706 5707 5709 5711 5711 5711 5711 5711 5711 5711 5711 5710 5710 5711 5712 5712 5712 5713 5713 5713 5712 5712 5710 5709 5707 5706 5705 5703 5701 5700 5698 5697 5696 5694 5692 5689 5687 5685 5682 5680 5677 5675 5673 5672 5669 5667 5664 5662 5659 5656 5653 5650 5647 5644 5641 5639 5636 5633 5630 5627
5662 5665 5669 5671 5674 5676 5678 5680 5681 5683 5685 5687 5689 5690 5690 5691 5692 5693 5695 5696 5698 5699 5700 5700 5700 5700 5702 5704 5706 5707 5707 5707 5707 5706 5706 5705 5705 5705 5707 5708 5708 5708 5708 5708 5708 5708 5707 5706 5704 5703 5702 5700 5699 5697 5696 5695 5693 5692 5690 5688 5686 5683 5681 5679 5676 5674 5672 5670 5668 5666 5663 5661 5658 5655 5653 5650 5647 5644 5641 5639 5636 5633 5630 5627 5624
5658 5661 5664 5666 5669 5671 5673 5674 5676 5678 5680 5682 5683 5683 5684 5685 5686 5688 5689 5691 5692 5694 5694 5694 5694 5696 5697 5697 5699 5701 5702 5702 5702 5702 5701 5701 5700 5701 5703 5703 5704 5704 5704 5704 5704 5703 5702 5701 5700 5699 5698 5696 5695 5694 5692 5691 5689 5688 5686 5684 5682 5679 5677 5675 5672 5670 5668 5666 5664 5662 5660 5657 5655 5652 5650 5647 5644 5641 5639 5636 5633 5631 5628 5625 5622
5653 5656 5658 5661 5665 5667 5668 5669 5672 5673 5675 5676 5677 5677 5677 5678 5680 5681 5682 5683 5685 5687 5688 5688 5689 5691 5691 5691 5693 5695 5697 5698 5697 5697 5697 5697 5697 5698 5699 5699 5700 5700 5700 5700 5699 5699 5698 5697 5696 5695 5694 5692 5691 5690 5688 5687 5685 5684 5682 5680 5678 5675 5673 5671 5669 5667 5665 5663 5660 5658 5656 5654 5652 5649 5646 5644 5641 5639 5636 5634 5631 5628 5626 5623 5620
5648 5650 5653 5657 5660 5662 5664 5665 5666 5667 5668 5670 5671 5672 5673 5674 5675 5676 5677 5678 5680 5681 5682 5684 5685 5685 5685 5686 5688 5690 5692 5693 5692 5692 5693 5694 5694 5694 5695 5695 5695 5696 5695 5695 5695 5694 5693 5692 5691 5690 5689 5689 5687 5686 5684 5683 5681 5679 5678 5676 5674 5671 5669 5667 5665 5663 5661 5659 5657 5655 5653 5651 5648 5646 5643 5641 5638 5636 5634 5631 5629 5626 5623 5621 5618
5642 5645 5649 5652 5655 5657 5658 5658 5659 5660 5662 5665 5667 5668 5670 5671 5671 5673 5674 5674 5674 5676 5678 5680 5681 5681 5682 5683 5685 5686 5687 5687 5686 5687 5689 5690 5690 5690 5691 5691 5691 5691 5691 5691 5690 5690 5689 5688 5687 5686 5685 5684 5683 5682 5680 5678 5677 5675 5673 5671 5669 5667 5665 5663 5661 5659 5657 5655 5653 5651 5649 5647 5645 5643 5640 5638 5635 5633 5631 5629 5626 5624 5621 5618 5616
5636 5640 5644 5647 5649 5651 5651 5651 5653 5655 5658 5660 5662 5664 5666 5668 5668 5668 5669 5669 5669 5670 5673 5676 5676 5677 5679 5680 5682 5683 5683 5682 5682 5684 5685 5685 5686 5686 5687 5687 5688 5688 5687 5687 5686 5686 5685 5684 5683 5682 5681 5680 5679 5677 5675 5674 5672 5671 5669 5667 5665 5663 5661 5660 5658 5656 5654 5651 5649 5648 5646 5644 5641 5639 5637 5634 5632 5630 5628 5626 5624 5621 5618 5616 5613
5631 5635 5639 5641 5643 5644 5645 5646 5649 5651 5653 5655 5657 5658 5661 5663 5664 5664 5664 5663 5662 5663 5666 5669 5670 5672 5675 5677 5678 5679 5678 5678 5680 5681 5681 5682 5683 5683 5683 5684 5684 5683 5683 5683 5682 5682 5681 5680 5679 5678 5677 5675 5673 5672 5670 5669 5668 5666 5665 5663 5661 5659 5658 5656 5654 5652 5650 5648 5646 5644 5642 5640 5638 5636 5633 5631 5629 5627 5625 5623 5621 5619 5616 5613 5611
5625 5628 5631 5634 5636 5638 5640 5642 5644 5646 5648 5650 5652 5653 5655 5657 5659 5659 5658 5657 5657 5658 5660 5663 5666 5668 5670 5672 5673 5673 5674 5675 5677 5677 5678 5679 5680 5680 5680 5680 5680 5679 5679 5678 5678 5677 5676 5675 5674 5673 5672 5670 5668 5667 5665 5664 5663 5662 5661 5659 5657 5656 5654 5652 5650 5648 5646 5645 5643 5641 5639 5637 5634 5632 5630 5628 5626 5624 5622 5620 5618 5616 5613 5611 5609
5618 5622 5625 5628 5630 5632 5635 5637 5639 5641 5643 5645 5647 5648 5649 5650 5652 5652 5650 5650 5651 5653 5654 5656 5660 5662 5664 5666 5667 5668 5670 5671 5672 5673 5674 5675 5676 5676 5676 5676 5676 5675 5675 5674 5673 5673 5671 5670 5669 5668 5666 5664 5663 5662 5661 5660 5659 5657 5656 5654 5653 5652 5650 5648 5646 5645 5643 5641 5639 5637 5635 5633 5630 5628 5626 5624 5622 5620 5618 5617 5615 5613 5611 5608 5606
5613 5617 5620 5622 5625 5627 5630 5632 5634 5636 5638 5640 5641 5643 5643 5644 5645 5645 5644 5643 5644 5645 5646 5649 5653 5656 5658 5660 5662 5664 5665 5667 5668 5669 5670 5671 5671 5672 5671 5671 5671 5671 5670 5669 5669 5668 5667 5665 5664 5663 5661 5659 5658 5657 5657 5656 5654 5653 5652 5650 5649 5648 5646 5645 5643 5641 5639 5637 5635 5633 5631 5629 5626 5624 5622 5620 5619 5617 5615 5614 5612 5610 5608 5606 5604
5608 5612 5615 5618 5620 5623 5625 5627 5629 5631 5632 5634 5635 5636 5637 5637 5637 5638 5639 5640 5639 5639 5641 5644 5648 5650 5653 5655 5657 5659 5661 5662 5663 5664 5665 5666 5666 5666 5667 5667 5667 5666 5665 5665 5664 5663 5662 5660 5659 5658 5656 5655 5654 5653 5652 5651 5650 5649 5648 5646 5645 5644 5642 5641 5639 5637 5635 5633 5631 5629 5627 5625 5622 5620 5618 5617 5615 5613 5612 5610 5609 5607 5605 5603 5601
5606 5609 5612 5614 5616 5619 5621 5622 5623 5624 5627 5628 5629 5630 5631 5631 5630 5631 5632 5634 5635 5636 5638 5641 5644 5646 5649 5651 5653 5655 5656 5657 5659 5660 5661 5661 5662 5662 5662 5662 5661 5661 5660 5660 5659 5658 5657 5655 5654 5653 5652 5651 5649 5648 5647 5646 5645 5644 5643 5642 5641 5639 5638 5637 5635 5633 5631 5629 5627 5625 5623 5620 5618 5616 5615 5613 5611 5610 5609 5607 5605 5604 5602 5600 5598
5604 5606 5609 5611 5612 5614 5616 5616 5617 5618 5620 5621 5622 5623 5625 5626 5626 5626 5625 5626 5628 5631 5634 5637 5640 5642 5645 5647 5648 5650 5652 5653 5654 5655 5656 5656 5657 5657 5657 5657 5656 5656 5655 5655 5654 5653 5652 5650 5649 5648 5647 5645 5644 5643 5642 5641 5640 5639 5638 5637 5636 5635 5634 5632 5631 5629 5627 5625 5623 5621 5619 5616 5614 5613 5611 5610 5608 5606 5605 5604 5602 5601 5599 5597 5595
5600 5602 5604 5606 5607 5608 5609 5610 5611 5612 5613 5614 5615 5617 5618 5619 5620 5620 5620 5621 5623 5627 5630 5634 5637 5639 5640 5642 5644 5646 5647 5648 5649 5650 5651 5652 5653 5653 5652 5652 5652 5652 5651 5650 5649 5648 5646 5645 5644 5642 5641 5640 5639 5638 5637 5636 5636 5635 5634 5633 5632 5631 5629 5628 5627 5625 5623 5621 5619 5617 5614 5612 5611 5609 5608 5606 5604 5603 5602 5600 5599 5597 5596 5594 5592
5595 5597 5598 5599 5601 5602 5603 5604 5606 5607 5607 5607 5609 5611 5612 5612 5613 5615 5615 5617 5620 5623 5627 5630 5632 5634 5636 5638 5640 5641 5642 5644 5645 5646 5646 5647 5648 5647 5647 5647 5647 5647 5646 5645 5644 5643 5641 5640 5638 5637 5636 5635 5634 5634 5633 5632 5631 5631 5630 5629 5628 5627 5625 5624 5622 5620 5618 5616 5615 5612 5610 5609 5607 5606 5604 5602 5601 5600 5598 5597 5596 5594 5593 5591 5589
5590 5591 5592 5593 5594 5595 5596 5598 5599 5601 5601 5603 5604 5606 5607 5608 5609 5610 5612 5614 5617 5620 5623 5625 5627 5629 5631 5633 5635 5637 5638 5639 5640 5641 5641 5642 5642 5642 5641 5642 5642 5641 5640 5639 5638 5637 5636 5634 5633 5632 5631 5631 5630 5629 5629 5628 5627 5626 5625 5625 5624 5622 5621 5619 5618 5616 5614 5612 5610 5609 5607 5605 5604 5602 5600 5599 5598 5596 5595 5594 5592 5591 5589 5588 5586
5585 5586 5586 5588 5589 5590 5590 5592 5594 5596 5598 5599 5600 5602 5603 5603 5605 5607 5609 5612 5614 5616 5618 5621 5623 5625 5627 5629 5631 5632 5634 5634 5635 5635 5636 5636 5636 5636 5636 5636 5636 5635 5634 5633 5632 5631 5630 5629 5628 5627 5627 5626 5626 5625 5624 5623 5623 5622 5621 5620 5619 5618 5617 5615 5613 5611 5610 5608 5606 5605 5603 5602 5600 5598 5597 5595 5594 5593 5591 5590 5589 5587 5586 5584 5583
5581 5582 5582 5583 5584 5584 5585 5586 5589 5591 5594 5595 5596 5598 5599 5600 5602 5604 5606 5608 5610 5613 5615 5617 5619 5621 5623 5624 5626 5627 5628 5628 5629 5630 5630 5630 5630 5630 5630 5630 5630 5629 5628 5627 5626 5625 5624 5624 5623 5623 5622 5622 5621 5620 5620 5619 5618 5618 5617 5616 5615 5613 5612 5610 5609 5607 5605 5604 5602 5601 5600 5598 5596 5595 5593 5592 5590 5589 5588 5587 5585 5584 5583 5581 5580
5578 5579 5579 5580 5581 5581 5581 5583 5584 5586 5588 5591 5592 5594 5597 5598 5600 5602 5603 5605 5607 5609 5611 5613 5615 5617 5618 5619 5621 5622 5622 5622 5623 5624 5624 5624 5624 5624 5624 5624 5624 5623 5622 5621 5620 5620 5619 5619 5618 5618 5617 5617 5616 5616 5615 5614 5614 5613 5612 5611 5610 5609 5607 5605 5604 5603 5601 5600 5598 5597 5596 5594 5593 5591 5589 5588 5587 5586 5584 5583 5582 5581 5579 5578 5576
5575 5576 5577 5578 5579 5579 5580 5581 5582 5584 5586 5588 5589 5591 5593 5595 5597 5599 5600 5601 5604 5605 5607 5609 5610 5612 5613 5614 5615 5616 5616 5617 5617 5618 5618 5618 5619 5619 5619 5618 5618 5617 5616 5616 5615 5615 5614 5614 5613 5613 5613 5612 5612 5611 5611 5610 5609 5608 5607 5606 5604 5603 5602 5600 5599 5598 5597 5596 5594 5593 5592 5590 5589 5587 5586 5584 5583 5582 5581 5580 5579 5577 5576 5575 5573
5572 5573 5574 5576 5577 5578 5578 5579 5580 5582 5583 5585 5587 5588 5590 5591 5593 5595 5596 5598 5600 5601 5603 5604 5605 5607 5608 5609 5610 5610 5611 5612 5612 5613 5613 5613 5613 5613 5613 5613 5612 5611 5611 5610 5610 5610 5609 5608 5608 5608 5608 5608 5607 5606 5605 5605 5604 5603 5601 5600 5599 5598 5596 5595 5594 5593 5592 5591 5590 5589 5588 5586 5585 5584 5582 5581 5579 5578 5577 5576 5575 5574 5573 5572 5570
5569 5570 5572 5573 5574 5575 5576 5576 5577 5579 5580 5582 5584 5585 5587 5588 5590 5591 5593 5594 5596 5597 5598 5600 5601 5602 5603 5603 5604 5605 5606 5607 5607 5608 5608 5608 5608 5607 5607 5607 5606 5606 5606 5605 5605 5605 5604 5603 5603 5603 5603 5602 5602 5601 5600 5599 5598 5597 5596 5595 5594 5593 5591 5590 5589 5588 5587 5586 5585 5585 5584 5582 5581 5580 5578 5577 5576 5575 5574 5573 5572 5571 5570 5569 5567
5566 5567 5569 5569 5570 5572 5572 5573 5574 5576 5577 5579 5580 5582 5583 5584 5586 5587 5589 5590 5591 5593 5594 5595 5595 5596 5597 5598 5599 5600 5600 5601 5601 5602 5602 5602 5602 5602 5602 5601 5601 5601 5600 5600 5600 5600 5599 5598 5598 5598 5598 5597 5597 5596 5595 5594 5593 5592 5591 5590 5588 5587 5586 5585 5584 5583 5582 5582 5581 5580 5579 5578 5577 5576 5574 5573 5572 5571 5570 5569 5569 5568 5567 5566 5564
5563 5564 5565 5566 5567 5568 5569 5570 5571 5572 5573 5575 5577 5578 5579 5580 5582 5583 5584 5586 5587 5588 5589 5590 5590 5591 5592 5592 5593 5594 5594 5595 5595 5595 5596 5596 5596 5596 5596 5596 5595 5595 5595 5595 5595 5594 5594 5593 5593 5593 5592 5592 5591 5591 5590 5589 5588 5587 5586 5584 5583 5582 5581 5580 5579 5578 5578 5577 5576 5576 5575 5574 5573 5572 5571 5570 5569 5568 5567 5566 5565 5564 5563 5562 5561
5559 5560 5562 5563 5564 5565 5566 5567 5568 5569 5570 5571 5572 5573 5575 5576 5577 5578 5580 5581 5581 5582 5583 5584 5585 5586 5586 5587 5587 5588 5588 5589 5589 5589 5590 5590 5590 5590 5590 5590 5590 5590 5590 5590 5589 5589 5589 5588 5588 5588 5587 5587 5586 5585 5584 5583 5582 5581 5580 5579 5578 5577 5576 5575 5574 5574 5573 5573 5572 5572 5571 5570 5569 5568 5567 5566 5565 5564 5563 5562 5561 5561 5560 5559 5558
5556 5557 5558 5560 5561 5562 5562 5563 5564 5565 5566 5567 5568 5569 5571 5572 5573 5574 5575 5576 5576 5577 5578 5579 5579 5580 5581 5581 5582 5582 5583 5583 5584 5584 5584 5585 5585 5584 5584 5584 5584 5584 5584 5584 5584 5584 5583 5583 5583 5582 5582 5581 5580 5579 5578 5577 5576 5575 5574 5574 5573 5572 5571 5570 5570 5569 5569 5568 5568 5567 5566 5565 5564 5563 5563 5562 5561 5560 5559 5558 5558 5557 5556 5555 5555